Time,TemperatureF,DewpointF,PressureIn,WindDirection,WindDirectionDegrees,WindSpeedMPH,WindSpeedGustMPH,Humidity,HourlyPrecipIn,Conditions,Clouds,dailyrainin,SolarRadiationWatts/m^2,SoftwareType,DateUTC
2014-04-18 00:00:00,50.2,36.9,30.33,East,90,0.0,0.0,60,0.00,,,0.00,0,wxd,2014-04-18 04:00:00,
2014-04-18 00:05:00,49.9,37.4,30.33,East,90,0.0,0.0,62,0.00,,,0.00,0,wxd,2014-04-18 04:05:00,
2014-04-18 00:10:00,49.8,36.9,30.33,East,90,0.0,0.0,61,0.00,,,0.00,0,wxd,2014-04-18 04:10:00,
2014-04-18 00:15:00,49.5,37.4,30.33,East,90,0.0,0.0,63,0.00,,,0.00,0,wxd,2014-04-18 04:15:00,
2014-04-18 00:20:00,49.5,37.4,30.33,East,90,0.0,0.0,63,0.00,,,0.00,0,wxd,2014-04-18 04:20:00,
2014-04-18 00:25:00,49.5,40.1,30.33,East,90,0.0,0.0,70,0.00,,,0.00,0,wxd,2014-04-18 04:25:00,
2014-04-18 00:30:00,49.6,39.5,30.33,East,90,0.0,0.0,68,0.00,,,0.00,0,wxd,2014-04-18 04:30:00,
2014-04-18 00:35:00,49.8,38.5,30.32,East,90,0.0,0.0,65,0.00,,,0.00,0,wxd,2014-04-18 04:35:00,
2014-04-18 00:40:00,49.9,38.2,30.32,East,90,0.0,0.0,64,0.00,,,0.00,0,wxd,2014-04-18 04:40:00,
2014-04-18 00:45:00,50.1,38.4,30.32,East,90,0.0,0.0,64,0.00,,,0.00,0,wxd,2014-04-18 04:45:00,
2014-04-18 00:50:00,50.1,37.6,30.32,East,90,0.0,0.0,62,0.00,,,0.00,0,wxd,2014-04-18 04:50:00,
2014-04-18 00:55:00,49.9,37.4,30.32,East,90,0.0,0.0,62,0.00,,,0.00,0,wxd,2014-04-18 04:55:00,
2014-04-18 01:00:00,49.8,38.5,30.32,East,90,0.0,0.0,65,0.00,,,0.00,0,wxd,2014-04-18 05:00:00,
2014-04-18 01:05:00,49.6,38.3,30.33,East,90,0.0,0.0,65,0.00,,,0.00,0,wxd,2014-04-18 05:05:00,
2014-04-18 01:10:00,49.4,38.5,30.33,East,90,0.0,0.0,66,0.00,,,0.00,0,wxd,2014-04-18 05:10:00,
2014-04-18 01:15:00,49.1,37.8,30.33,East,90,0.0,0.0,65,0.00,,,0.00,0,wxd,2014-04-18 05:15:00,
2014-04-18 01:20:00,48.9,37.7,30.33,East,90,0.0,0.0,65,0.00,,,0.00,0,wxd,2014-04-18 05:20:00,
2014-04-18 01:25:00,48.8,38.3,30.33,East,90,0.0,0.0,67,0.00,,,0.00,0,wxd,2014-04-18 05:25:00,
2014-04-18 01:30:00,48.8,38.7,30.33,East,90,0.0,0.0,68,0.00,,,0.00,0,wxd,2014-04-18 05:30:00,
2014-04-18 01:35:00,48.6,37.0,30.32,East,90,0.0,0.0,64,0.00,,,0.00,0,wxd,2014-04-18 05:35:00,
2014-04-18 01:40:00,48.8,37.2,30.32,East,90,0.0,0.0,64,0.00,,,0.00,0,wxd,2014-04-18 05:40:00,
2014-04-18 01:45:00,48.8,38.0,30.32,East,90,0.0,0.0,66,0.00,,,0.00,0,wxd,2014-04-18 05:45:00,
2014-04-18 01:50:00,48.8,38.7,30.32,East,90,0.0,0.0,68,0.00,,,0.00,0,wxd,2014-04-18 05:50:00,
2014-04-18 01:55:00,48.6,38.1,30.32,East,90,0.0,0.0,67,0.00,,,0.00,0,wxd,2014-04-18 05:55:00,
2014-04-18 02:00:00,48.6,37.8,30.32,East,90,0.0,0.0,66,0.00,,,0.00,0,wxd,2014-04-18 06:00:00,
2014-04-18 02:05:00,48.5,37.3,30.31,East,90,0.0,0.0,65,0.00,,,0.00,0,wxd,2014-04-18 06:05:00,
2014-04-18 02:10:00,48.6,36.6,30.31,East,90,0.0,0.0,63,0.00,,,0.00,0,wxd,2014-04-18 06:10:00,
2014-04-18 02:15:00,48.8,36.0,30.31,East,89,0.0,0.0,61,0.00,,,0.00,0,wxd,2014-04-18 06:15:00,
2014-04-18 02:20:00,48.9,35.6,30.30,East,89,0.0,0.0,60,0.00,,,0.00,0,wxd,2014-04-18 06:20:00,
2014-04-18 02:25:00,48.9,38.0,30.30,East,89,0.0,0.0,66,0.00,,,0.00,0,wxd,2014-04-18 06:25:00,
2014-04-18 02:30:00,48.5,37.7,30.30,East,89,0.0,0.0,66,0.00,,,0.00,0,wxd,2014-04-18 06:30:00,
2014-04-18 02:35:00,48.0,37.2,30.31,East,89,0.0,0.0,66,0.00,,,0.00,0,wxd,2014-04-18 06:35:00,
2014-04-18 02:40:00,47.7,37.3,30.31,East,89,0.0,0.0,67,0.00,,,0.00,0,wxd,2014-04-18 06:40:00,
2014-04-18 02:45:00,47.4,37.0,30.31,East,89,0.0,0.0,67,0.00,,,0.00,0,wxd,2014-04-18 06:45:00,
2014-04-18 02:50:00,47.3,36.5,30.31,East,89,0.0,0.0,66,0.00,,,0.00,0,wxd,2014-04-18 06:50:00,
2014-04-18 02:55:00,47.1,36.7,30.31,East,89,0.0,0.0,67,0.00,,,0.00,0,wxd,2014-04-18 06:55:00,
2014-04-18 03:00:00,47.1,36.7,30.31,East,89,0.0,0.0,67,0.00,,,0.00,0,wxd,2014-04-18 07:00:00,
2014-04-18 03:05:00,47.0,37.0,30.30,East,89,0.0,0.0,68,0.00,,,0.00,0,wxd,2014-04-18 07:05:00,
2014-04-18 03:10:00,47.0,36.2,30.30,East,89,0.0,0.0,66,0.00,,,0.00,0,wxd,2014-04-18 07:10:00,
2014-04-18 03:15:00,47.0,36.6,30.30,East,89,0.0,0.0,67,0.00,,,0.00,0,wxd,2014-04-18 07:15:00,
2014-04-18 03:20:00,47.1,36.3,30.29,East,89,0.0,0.0,66,0.00,,,0.00,0,wxd,2014-04-18 07:20:00,
2014-04-18 03:25:00,47.1,37.1,30.29,East,89,0.0,0.0,68,0.00,,,0.00,0,wxd,2014-04-18 07:25:00,
2014-04-18 03:30:00,47.1,37.1,30.29,East,89,0.0,0.0,68,0.00,,,0.00,0,wxd,2014-04-18 07:30:00,
2014-04-18 03:35:00,47.3,36.1,30.29,East,89,0.0,0.0,65,0.00,,,0.00,0,wxd,2014-04-18 07:35:00,
2014-04-18 03:40:00,47.6,36.8,30.29,East,89,0.0,0.0,66,0.00,,,0.00,0,wxd,2014-04-18 07:40:00,
2014-04-18 03:45:00,47.6,37.9,30.29,East,89,0.0,0.0,69,0.00,,,0.00,0,wxd,2014-04-18 07:45:00,
2014-04-18 03:50:00,47.4,37.4,30.30,East,89,0.0,0.0,68,0.00,,,0.00,0,wxd,2014-04-18 07:50:00,
2014-04-18 03:55:00,47.1,37.5,30.30,East,89,0.0,0.0,69,0.00,,,0.00,0,wxd,2014-04-18 07:55:00,
2014-04-18 04:00:00,47.0,37.7,30.30,East,89,0.0,0.0,70,0.00,,,0.00,0,wxd,2014-04-18 08:00:00,
2014-04-18 04:05:00,47.0,37.7,30.29,East,89,0.0,0.0,70,0.00,,,0.00,0,wxd,2014-04-18 08:05:00,
2014-04-18 04:10:00,47.6,37.6,30.29,East,89,0.0,0.0,68,0.00,,,0.00,0,wxd,2014-04-18 08:10:00,
2014-04-18 04:15:00,48.2,38.1,30.29,East,89,0.0,1.0,68,0.00,,,0.00,0,wxd,2014-04-18 08:15:00,
2014-04-18 04:20:00,48.5,37.7,30.28,East,89,0.0,2.0,66,0.00,,,0.00,0,wxd,2014-04-18 08:20:00,
2014-04-18 04:25:00,48.6,37.4,30.28,East,89,0.0,2.0,65,0.00,,,0.00,0,wxd,2014-04-18 08:25:00,
2014-04-18 04:30:00,48.8,37.6,30.28,East,89,0.0,2.0,65,0.00,,,0.00,0,wxd,2014-04-18 08:30:00,
2014-04-18 04:35:00,48.9,37.7,30.28,East,89,0.0,2.0,65,0.00,,,0.00,0,wxd,2014-04-18 08:35:00,
2014-04-18 04:40:00,49.1,38.2,30.28,East,87,0.0,1.0,66,0.00,,,0.00,0,wxd,2014-04-18 08:40:00,
2014-04-18 04:45:00,49.1,38.2,30.28,East,86,0.0,2.0,66,0.00,,,0.00,0,wxd,2014-04-18 08:45:00,
2014-04-18 04:50:00,49.2,37.9,30.28,East,86,0.0,2.0,65,0.00,,,0.00,0,wxd,2014-04-18 08:50:00,
2014-04-18 04:55:00,49.2,37.9,30.28,East,86,0.0,1.0,65,0.00,,,0.00,0,wxd,2014-04-18 08:55:00,
2014-04-18 05:00:00,49.4,38.1,30.28,East,86,0.0,2.0,65,0.00,,,0.00,0,wxd,2014-04-18 09:00:00,
2014-04-18 05:05:00,49.4,38.5,30.29,East,86,0.0,2.0,66,0.00,,,0.00,0,wxd,2014-04-18 09:05:00,
2014-04-18 05:10:00,49.5,38.6,30.29,East,86,0.0,2.0,66,0.00,,,0.00,0,wxd,2014-04-18 09:10:00,
2014-04-18 05:15:00,49.5,38.6,30.29,East,86,0.0,2.0,66,0.00,,,0.00,0,wxd,2014-04-18 09:15:00,
2014-04-18 05:20:00,49.5,39.0,30.29,East,86,0.0,2.0,67,0.00,,,0.00,0,wxd,2014-04-18 09:20:00,
2014-04-18 05:25:00,49.5,39.0,30.29,East,85,0.0,2.0,67,0.00,,,0.00,0,wxd,2014-04-18 09:25:00,
2014-04-18 05:30:00,49.5,39.0,30.29,East,85,0.0,2.0,67,0.00,,,0.00,0,wxd,2014-04-18 09:30:00,
2014-04-18 05:35:00,49.5,39.4,30.29,East,85,0.0,3.0,68,0.00,,,0.00,0,wxd,2014-04-18 09:35:00,
2014-04-18 05:40:00,49.4,39.7,30.29,ENE,65,0.0,2.0,69,0.00,,,0.00,0,wxd,2014-04-18 09:40:00,
2014-04-18 05:45:00,49.4,39.3,30.29,ENE,61,0.0,2.0,68,0.00,,,0.00,0,wxd,2014-04-18 09:45:00,
2014-04-18 05:50:00,49.2,39.1,30.29,ENE,61,0.0,3.0,68,0.00,,,0.00,0,wxd,2014-04-18 09:50:00,
2014-04-18 05:55:00,49.1,39.0,30.29,ENE,59,0.0,3.0,68,0.00,,,0.00,0,wxd,2014-04-18 09:55:00,
2014-04-18 06:00:00,49.1,39.4,30.29,ENE,58,0.0,2.0,69,0.00,,,0.00,0,wxd,2014-04-18 10:00:00,
2014-04-18 06:05:00,49.1,39.4,30.29,ENE,59,1.0,3.0,69,0.00,,,0.00,0,wxd,2014-04-18 10:05:00,
2014-04-18 06:10:00,49.2,39.8,30.29,ENE,61,0.0,2.0,70,0.00,,,0.00,0,wxd,2014-04-18 10:10:00,
2014-04-18 06:15:00,49.2,40.2,30.29,NE,55,0.0,3.0,71,0.00,,,0.00,0,wxd,2014-04-18 10:15:00,
2014-04-18 06:20:00,49.2,40.6,30.29,ENE,60,1.0,3.0,72,0.00,,,0.00,0,wxd,2014-04-18 10:20:00,
2014-04-18 06:25:00,49.2,40.6,30.29,ENE,60,0.0,3.0,72,0.00,,,0.00,0,wxd,2014-04-18 10:25:00,
2014-04-18 06:30:00,49.2,40.6,30.29,ENE,59,0.0,3.0,72,0.00,,,0.00,0,wxd,2014-04-18 10:30:00,
2014-04-18 06:35:00,49.1,40.5,30.29,ENE,59,0.0,2.0,72,0.00,,,0.00,0,wxd,2014-04-18 10:35:00,
2014-04-18 06:40:00,48.9,40.3,30.29,ENE,59,0.0,2.0,72,0.00,,,0.00,0,wxd,2014-04-18 10:40:00,
2014-04-18 06:45:00,48.9,40.6,30.29,NE,54,0.0,3.0,73,0.00,,,0.00,0,wxd,2014-04-18 10:45:00,
2014-04-18 06:50:00,48.9,40.3,30.29,NE,54,0.0,2.0,72,0.00,,,0.00,0,wxd,2014-04-18 10:50:00,
2014-04-18 06:55:00,48.8,40.2,30.29,ENE,60,0.0,2.0,72,0.00,,,0.00,0,wxd,2014-04-18 10:55:00,
2014-04-18 07:00:00,48.8,40.2,30.29,ENE,68,0.0,2.0,72,0.00,,,0.00,0,wxd,2014-04-18 11:00:00,
2014-04-18 07:05:00,48.6,40.0,30.30,ENE,68,0.0,2.0,72,0.00,,,0.00,0,wxd,2014-04-18 11:05:00,
2014-04-18 07:10:00,48.5,39.9,30.30,ENE,68,0.0,2.0,72,0.00,,,0.00,5,wxd,2014-04-18 11:10:00,
2014-04-18 07:15:00,48.5,39.9,30.30,ENE,68,0.0,2.0,72,0.00,,,0.00,7,wxd,2014-04-18 11:15:00,
2014-04-18 07:20:00,48.3,40.1,30.30,ENE,68,0.0,2.0,73,0.00,,,0.00,9,wxd,2014-04-18 11:20:00,
2014-04-18 07:25:00,48.3,40.1,30.30,ENE,68,0.0,1.0,73,0.00,,,0.00,11,wxd,2014-04-18 11:25:00,
2014-04-18 07:30:00,48.3,40.4,30.30,ENE,68,0.0,1.0,74,0.00,,,0.00,14,wxd,2014-04-18 11:30:00,
2014-04-18 07:35:00,48.3,40.4,30.30,ENE,68,0.0,1.0,74,0.00,,,0.00,21,wxd,2014-04-18 11:35:00,
2014-04-18 07:40:00,48.3,40.4,30.30,ENE,68,0.0,2.0,74,0.00,,,0.00,25,wxd,2014-04-18 11:40:00,
2014-04-18 07:45:00,48.3,40.1,30.30,ENE,67,0.0,2.0,73,0.00,,,0.00,33,wxd,2014-04-18 11:45:00,
2014-04-18 07:50:00,48.5,40.6,30.32,ENE,67,0.0,2.0,74,0.00,,,0.00,40,wxd,2014-04-18 11:50:00,
2014-04-18 07:55:00,48.5,40.6,30.32,ENE,67,0.0,2.0,74,0.00,,,0.00,46,wxd,2014-04-18 11:55:00,
2014-04-18 08:00:00,48.5,40.9,30.32,ENE,67,0.0,2.0,75,0.00,,,0.00,49,wxd,2014-04-18 12:00:00,
2014-04-18 08:05:00,48.6,41.0,30.31,ENE,67,0.0,2.0,75,0.00,,,0.00,54,wxd,2014-04-18 12:05:00,
2014-04-18 08:10:00,48.8,41.2,30.31,ENE,67,0.0,2.0,75,0.00,,,0.00,56,wxd,2014-04-18 12:10:00,
2014-04-18 08:15:00,48.8,41.2,30.31,ENE,67,0.0,2.0,75,0.00,,,0.00,63,wxd,2014-04-18 12:15:00,
2014-04-18 08:20:00,48.9,41.3,30.32,ENE,61,0.0,3.0,75,0.00,,,0.00,67,wxd,2014-04-18 12:20:00,
2014-04-18 08:25:00,49.1,41.5,30.32,NNE,29,0.0,3.0,75,0.00,,,0.00,69,wxd,2014-04-18 12:25:00,
2014-04-18 08:30:00,49.2,41.6,30.32,NNE,29,0.0,3.0,75,0.00,,,0.00,74,wxd,2014-04-18 12:30:00,
2014-04-18 08:35:00,49.2,41.6,30.32,NNE,33,0.0,3.0,75,0.00,,,0.00,76,wxd,2014-04-18 12:35:00,
2014-04-18 08:40:00,49.4,41.8,30.32,NE,42,1.0,3.0,75,0.00,,,0.00,84,wxd,2014-04-18 12:40:00,
2014-04-18 08:45:00,49.5,41.9,30.32,NNE,20,0.0,2.0,75,0.00,,,0.00,86,wxd,2014-04-18 12:45:00,
2014-04-18 08:50:00,49.6,42.0,30.33,NNE,19,0.0,2.0,75,0.00,,,0.00,86,wxd,2014-04-18 12:50:00,
2014-04-18 08:55:00,49.6,42.0,30.33,NNE,17,0.0,1.0,75,0.00,,,0.00,91,wxd,2014-04-18 12:55:00,
2014-04-18 09:00:00,49.9,42.3,30.33,NNE,17,0.0,2.0,75,0.00,,,0.00,90,wxd,2014-04-18 13:00:00,
2014-04-18 09:05:00,50.1,42.1,30.34,NNE,17,0.0,2.0,74,0.00,,,0.00,98,wxd,2014-04-18 13:05:00,
2014-04-18 09:10:00,50.2,42.6,30.34,NNE,17,0.0,2.0,75,0.00,,,0.00,105,wxd,2014-04-18 13:10:00,
2014-04-18 09:15:00,50.4,42.4,30.34,NNE,25,0.0,2.0,74,0.00,,,0.00,105,wxd,2014-04-18 13:15:00,
2014-04-18 09:25:00,50.7,42.4,30.34,NE,46,0.0,3.0,73,0.00,,,0.00,116,wxd,2014-04-18 13:25:00,
2014-04-18 09:30:00,50.8,42.8,30.34,ENE,65,0.0,3.0,74,0.00,,,0.00,118,wxd,2014-04-18 13:30:00,
2014-04-18 09:35:00,51.0,43.0,30.33,ENE,62,0.0,2.0,74,0.00,,,0.00,125,wxd,2014-04-18 13:35:00,
2014-04-18 09:40:00,51.0,43.0,30.33,ENE,60,0.0,5.0,74,0.00,,,0.00,125,wxd,2014-04-18 13:40:00,
2014-04-18 09:45:00,51.1,43.1,30.33,NNE,29,0.0,7.0,74,0.00,,,0.00,120,wxd,2014-04-18 13:45:00,
2014-04-18 09:50:00,51.3,43.3,30.32,NE,34,0.0,1.0,74,0.00,,,0.00,118,wxd,2014-04-18 13:50:00,
2014-04-18 09:55:00,51.4,42.7,30.32,ENE,60,0.0,3.0,72,0.00,,,0.00,118,wxd,2014-04-18 13:55:00,
2014-04-18 10:00:00,51.3,42.9,30.32,NNE,21,1.0,4.0,73,0.00,,,0.00,120,wxd,2014-04-18 14:00:00,
2014-04-18 10:05:00,51.3,42.9,30.32,NNE,27,0.0,3.0,73,0.00,,,0.00,118,wxd,2014-04-18 14:05:00,
2014-04-18 10:10:00,51.3,42.9,30.32,NE,48,1.0,3.0,73,0.00,,,0.00,118,wxd,2014-04-18 14:10:00,
2014-04-18 10:15:00,51.4,43.0,30.32,NE,49,1.0,6.0,73,0.00,,,0.00,123,wxd,2014-04-18 14:15:00,
2014-04-18 10:20:00,51.4,42.7,30.33,NE,35,1.0,6.0,72,0.00,,,0.00,128,wxd,2014-04-18 14:20:00,
2014-04-18 10:25:00,51.6,42.9,30.33,NE,53,0.0,2.0,72,0.00,,,0.00,132,wxd,2014-04-18 14:25:00,
2014-04-18 10:30:00,51.7,43.0,30.33,ENE,61,0.0,3.0,72,0.00,,,0.00,132,wxd,2014-04-18 14:30:00,
2014-04-18 10:35:00,51.7,43.0,30.33,ENE,60,0.0,3.0,72,0.00,,,0.00,130,wxd,2014-04-18 14:35:00,
2014-04-18 10:40:00,51.9,42.8,30.33,NE,41,1.0,3.0,71,0.00,,,0.00,130,wxd,2014-04-18 14:40:00,
2014-04-18 10:45:00,51.7,42.6,30.33,NNE,33,1.0,5.0,71,0.00,,,0.00,142,wxd,2014-04-18 14:45:00,
2014-04-18 10:50:00,51.9,43.2,30.32,NE,41,0.0,3.0,72,0.00,,,0.00,155,wxd,2014-04-18 14:50:00,
2014-04-18 10:55:00,52.3,42.8,30.32,NE,39,0.0,2.0,70,0.00,,,0.00,153,wxd,2014-04-18 14:55:00,
2014-04-18 11:00:00,52.3,42.8,30.32,NE,39,0.0,3.0,70,0.00,,,0.00,155,wxd,2014-04-18 15:00:00,
2014-04-18 11:05:00,52.5,42.6,30.33,NE,34,0.0,3.0,69,0.00,,,0.00,158,wxd,2014-04-18 15:05:00,
2014-04-18 11:10:00,52.6,43.1,30.33,NNE,28,1.0,4.0,70,0.00,,,0.00,153,wxd,2014-04-18 15:10:00,
2014-04-18 11:15:00,52.8,42.9,30.33,NE,46,1.0,5.0,69,0.00,,,0.00,151,wxd,2014-04-18 15:15:00,
2014-04-18 11:20:00,52.8,42.9,30.34,NE,48,0.0,2.0,69,0.00,,,0.00,149,wxd,2014-04-18 15:20:00,
2014-04-18 11:25:00,53.1,43.2,30.34,NE,48,0.0,2.0,69,0.00,,,0.00,146,wxd,2014-04-18 15:25:00,
2014-04-18 11:30:00,53.2,43.3,30.34,NE,48,0.0,2.0,69,0.00,,,0.00,155,wxd,2014-04-18 15:30:00,
2014-04-18 11:35:00,53.3,43.4,30.33,NNE,19,1.0,3.0,69,0.00,,,0.00,181,wxd,2014-04-18 15:35:00,
2014-04-18 11:40:00,53.3,43.4,30.33,North,351,0.0,2.0,69,0.00,,,0.00,167,wxd,2014-04-18 15:40:00,
2014-04-18 11:45:00,53.3,43.0,30.33,North,354,1.0,4.0,68,0.00,,,0.00,169,wxd,2014-04-18 15:45:00,
2014-04-18 11:50:00,53.5,43.2,30.32,NNE,16,0.0,3.0,68,0.00,,,0.00,197,wxd,2014-04-18 15:50:00,
2014-04-18 11:55:00,53.6,43.3,30.32,NNE,21,1.0,4.0,68,0.00,,,0.00,190,wxd,2014-04-18 15:55:00,
2014-04-18 12:00:00,53.6,43.3,30.32,NE,36,1.0,4.0,68,0.00,,,0.00,181,wxd,2014-04-18 16:00:00,
2014-04-18 12:05:00,53.8,43.1,30.32,NE,55,1.0,3.0,67,0.00,,,0.00,183,wxd,2014-04-18 16:05:00,
2014-04-18 12:10:00,53.9,43.6,30.32,NE,54,1.0,5.0,68,0.00,,,0.00,183,wxd,2014-04-18 16:10:00,
2014-04-18 12:15:00,54.1,43.4,30.32,NE,47,1.0,3.0,67,0.00,,,0.00,172,wxd,2014-04-18 16:15:00,
2014-04-18 12:25:00,54.1,43.4,30.30,NE,52,1.0,4.0,67,0.00,,,0.00,185,wxd,2014-04-18 16:25:00,
2014-04-18 12:30:00,54.2,43.5,30.30,ENE,57,0.0,3.0,67,0.00,,,0.00,188,wxd,2014-04-18 16:30:00,